Temp
21 21 19 16 13 14 12 12 8 9 10 14 16 20 24 25 27 30 33 35 38 41 47 57 61 63 64 64 63 62 60 59 57 57 58 58 57 55 55 54 53 51 50 50
16 23 21 16 16 15 15 15 14 12 12 19 20 23 24 23 25 27 29 32 34 37 40 44 48 62 62 63 61 61 60 59 57 56 57 56 56 56 55 54 53 49 47 45
15 21 21 14 13 13 14 16 13 7 13 18 19 21 24 23 25 25 28 30 32 34 36 39 42 48 61 61 60 58 58 57 55 55 55 55 55 55 54 53 50 47 46 47
15 20 10 15 20 19 15 17 16 15 16 18 19 23 26 26 25 26 28 29 32 34 35 38 41 45 49 58 57 56 55 54 54 54 54 53 53 53 53 53 51 48 46 46
13 15 18 19 16 15 13 15 19 15 17 19 21 24 25 27 27 27 29 30 32 34 36 38 40 43 47 54 56 55 53 53 54 55 53 52 50 51 53 51 49 47 47 46
16 11 8 12 20 25 23 13 21 18 17 18 21 17 19 26 28 28 30 31 31 34 35 35 37 42 48 53 54 53 54 53 54 54 53 51 50 50 51 50 48 46 45 48
15 13 14 19 22 26 11 11 19 18 18 19 19 21 26 29 29 29 31 32 34 34 33 34 36 40 40 48 46 52 54 53 52 53 51 51 49 49 49 48 44 44 43 44
16 12 9 23 22 12 16 20 19 20 21 21 23 25 27 29 28 28 29 31 32 32 32 34 35 36 35 35 36 44 51 49 46 46 46 46 44 44 43 42 41 41 41 40
13 17 25 24 21 26 24 20 20 20 22 24 23 25 27 27 28 29 29 30 32 31 31 33 33 34 33 33 36 40 44 41 39 39 39 40 37 36 37 37 37 37 38 38
14 19 20 22 25 26 25 22 23 24 26 26 23 25 26 27 27 28 29 29 31 30 30 30 32 32 32 33 34 35 37 36 36 35 35 35 37 38 37 37 37 37 37 36
15 19 20 24 24 23 23 24 24 28 27 25 25 26 26 26 27 28 29 28 30 28 28 29 32 32 33 33 34 34 34 34 35 36 35 35 36 37 37 36 40 39 38 37
15 19 16 17 23 23 20 22 25 25 25 26 25 25 26 26 28 28 28 27 28 28 28 30 31 31 32 33 34 34 33 34 34 35 35 36 36 36 41 41 41 41 41 39
14 20 18 19 21 24 22 25 26 25 25 24 25 26 26 25 27 28 28 27 26 26 27 29 31 31 32 33 33 33 33 33 34 34 34 35 35 36 34 37 40 40 40 39
18 16 16 22 19 22 25 26 26 26 25 25 25 26 26 25 25 25 24 26 28 28 28 29 30 30 32 33 33 32 33 35 33 33 33 33 34 34 34 34 33 34 38 38
17 19 18 20 22 24 25 25 24 22 23 23 24 23 24 23 23 24 25 27 30 29 28 28 29 29 32 33 33 32 32 33 33 33 33 34 33 33 33 33 33 33 35 37
16 18 19 19 20 21 22 22 22 21 23 23 23 24 24 25 25 25 26 27 26 26 27 28 28 29 31 32 33 33 33 35 34 33 34 33 33 33 33 33 33 33 33 33
13 15 17 18 19 20 20 21 21 22 23 22 23 25 25 26 26 25 25 27 27 26 29 29 29 30 31 32 32 33 33 34 35 34 34 34 33 32 32 32 32 31 30 32
19 19 20 20 20 20 21 22 22 23 23 24 25 25 24 24 24 24 25 27 27 27 27 30 31 31 31 31 32 32 32 32 32 31 32 31 31 31 31 31 30 30 30 31
20 20 21 21 21 21 21 21 22 23 23 24 25 24 25 25 25 26 26 26 26 25 26 29 30 31 31 31 31 32 32 32 31 31 31 31 30 30 29 29 29 29 28 27
20 21 22 21 22 21 20 22 24 24 25 26 26 25 24 24 25 26 26 24 25 26 28 28 28 28 29 30 31 30 29 29 29 28 28 28 28 27 27 27 26 26 26 26
19 21 21 21 22 23 23 24 25 24 24 25 25 24 24 25 26 26 24 24 26 28 28 28 28 28 28 28 28 28 27 27 27 26 26 25 25 25 25 25 25 25 24 24
21 21 21 22 22 22 23 23 24 24 24 24 24 24 24 24 26 26 27 25 28 30 29 28 28 28 27 27 25 25 25 25 25 25 25 25 25 24 24 24 23 23 24 24
20 21 21 21 21 21 23 22 22 22 22 22 23 23 22 22 24 23 22 28 29 29 28 28 29 28 27 25 24 24 23 23 22 22 22 23 23 23 23 22 22 23 23 23
19 20 20 21 21 21 20 21 22 22 22 23 24 24 23 23 23 25 27 27 28 28 28 28 28 28 25 23 22 21 21 21 21 22 22 22 21 21 21 21 21 23 23 23
18 18 19 19 19 19 20 21 21 21 22 22 23 24 24 25 23 23 24 25 27 25 24 27 27 25 22 22 22 22 22 21 20 20 20 20 20 20 20 20 20 21 21 22
17 17 18 18 19 20 20 21 20 21 21 20 21 22 23 24 24 23 25 25 24 24 23 24 23 22 21 20 20 19 19 20 19 20 19 19 19 19 19 21 21 21 21 21
18 19 18 18 19 19 22 21 20 19 20 20 20 21 22 22 23 23 23 23 23 22 22 22 23 23 22 21 20 21 22 21 20 19 19 18 19 19 19 19 19 19 19 18
MSLP
1020.89 1020.13 1020.62 1021.22 1021.65 1020.83 1020.18 1020.34 1019.85 1018.85 1017.52 1016.17 1014.78 1013.12 1011.35 1010.32 1008.14 1006.09 1004.55 1003.51 1002.89 1002.20 1001.21 1000.16 1000.12 1000.46 1001.02 1001.90 1003.05 1004.01 1005.03 1006.03 1007.00 1008.16 1009.31 1010.42 1011.54 1012.62 1013.66 1014.70 1015.73 1016.89 1017.91 1018.93
1020.47 1019.89 1020.09 1020.96 1022.02 1021.49 1021.15 1020.97 1020.24 1019.18 1017.65 1018.07 1016.43 1013.99 1012.63 1010.79 1009.28 1008.14 1007.05 1005.95 1005.07 1004.26 1003.46 1002.76 1002.13 1000.99 1001.36 1002.07 1003.16 1004.20 1005.09 1006.06 1007.01 1008.20 1009.35 1010.42 1011.49 1012.52 1013.61 1014.70 1015.80 1016.85 1017.79 1018.54
1020.13 1019.83 1019.74 1021.15 1022.31 1022.30 1021.96 1021.95 1021.69 1020.63 1020.04 1017.82 1016.02 1014.51 1012.92 1011.92 1010.61 1010.01 1009.05 1007.98 1006.93 1006.09 1005.18 1004.69 1004.03 1002.91 1002.02 1002.59 1003.69 1004.61 1005.43 1006.35 1007.31 1008.39 1009.54 1010.51 1011.53 1012.54 1013.46 1014.60 1015.92 1016.66 1017.69 1018.57
1020.85 1019.70 1020.00 1022.49 1023.12 1022.89 1022.53 1022.33 1022.56 1021.98 1020.59 1019.22 1017.45 1015.55 1014.27 1013.60 1012.58 1011.52 1010.21 1009.12 1008.12 1007.16 1006.30 1005.65 1005.08 1004.28 1003.65 1003.21 1004.04 1004.91 1005.73 1006.48 1007.37 1008.52 1009.64 1010.66 1011.60 1012.50 1013.53 1014.50 1015.44 1016.31 1017.32 1018.40
1021.96 1020.71 1020.76 1021.41 1022.69 1022.63 1022.85 1022.18 1022.56 1022.96 1021.51 1019.90 1017.96 1015.94 1014.65 1014.51 1013.94 1012.88 1011.12 1009.80 1008.80 1008.15 1007.58 1006.62 1005.82 1005.11 1004.52 1003.84 1004.27 1005.03 1005.78 1006.61 1007.58 1008.52 1009.57 1010.59 1011.50 1012.35 1013.38 1014.49 1015.36 1016.25 1017.14 1018.05
1022.72 1022.00 1022.32 1023.75 1023.07 1022.26 1021.85 1021.67 1021.86 1022.27 1021.46 1020.41 1019.02 1016.70 1015.69 1014.39 1013.52 1013.24 1011.96 1010.41 1009.38 1008.74 1008.20 1007.38 1006.76 1005.76 1004.81 1004.48 1004.83 1005.20 1005.85 1006.73 1007.65 1008.58 1009.55 1010.53 1011.42 1012.35 1013.40 1014.42 1015.32 1016.27 1017.21 1018.00
1023.67 1023.27 1023.91 1025.04 1024.11 1022.13 1022.46 1024.42 1023.21 1022.44 1021.58 1020.11 1019.08 1018.75 1016.98 1015.42 1014.18 1013.05 1011.85 1011.12 1010.63 1009.77 1009.01 1008.58 1007.76 1006.64 1005.86 1005.81 1006.26 1006.06 1006.62 1007.31 1008.16 1008.89 1009.74 1010.73 1011.72 1012.66 1013.54 1014.58 1015.71 1016.71 1017.58 1018.74
1025.74 1024.76 1024.59 1025.37 1024.76 1025.13 1026.58 1025.56 1024.69 1023.58 1022.23 1020.83 1019.71 1018.62 1017.65 1016.53 1015.21 1013.98 1012.89 1012.03 1011.31 1010.70 1010.31 1009.64 1008.78 1008.03 1007.74 1007.70 1007.75 1007.19 1007.38 1008.15 1008.98 1009.77 1010.65 1011.39 1012.37 1013.26 1014.16 1015.06 1016.08 1017.06 1018.11 1019.11
1028.93 1027.13 1026.66 1026.78 1026.88 1026.84 1026.66 1026.04 1024.92 1024.07 1023.06 1021.83 1020.45 1019.16 1018.04 1017.08 1016.30 1015.57 1014.79 1013.79 1012.98 1012.12 1011.32 1010.61 1010.08 1009.47 1009.02 1008.86 1008.36 1007.85 1008.26 1009.10 1009.85 1010.67 1011.49 1012.14 1012.92 1013.87 1014.88 1015.60 1016.40 1017.31 1018.12 1019.04
1029.79 1028.37 1027.99 1027.55 1027.60 1027.31 1026.89 1026.27 1025.26 1023.98 1022.65 1021.83 1021.12 1020.13 1019.10 1018.10 1017.07 1016.25 1015.65 1015.05 1014.31 1013.46 1012.63 1011.97 1011.35 1010.69 1010.36 1009.83 1009.15 1008.82 1009.14 1009.88 1010.53 1011.22 1012.22 1012.95 1013.64 1014.24 1014.84 1015.66 1016.32 1017.26 1018.06 1019.21
1030.21 1029.23 1028.34 1027.62 1027.88 1027.90 1027.19 1026.23 1025.16 1023.95 1023.13 1022.28 1021.42 1020.63 1020.04 1019.12 1018.19 1017.43 1016.73 1015.99 1015.18 1014.50 1013.88 1013.24 1012.59 1012.04 1011.56 1010.98 1010.37 1010.23 1010.31 1010.65 1011.22 1011.89 1012.56 1013.46 1014.20 1014.56 1015.11 1015.53 1015.87 1016.47 1017.51 1017.96
1030.85 1030.55 1030.63 1029.29 1028.53 1028.13 1027.35 1026.10 1025.04 1024.10 1023.34 1022.93 1022.29 1021.40 1020.60 1019.94 1019.17 1018.38 1017.55 1016.94 1016.14 1015.58 1014.90 1014.20 1013.50 1012.82 1012.30 1011.97 1011.41 1011.17 1011.43 1011.59 1011.89 1012.42 1013.20 1014.02 1014.55 1015.15 1015.69 1015.72 1017.01 1017.11 1018.14 1018.67
1032.05 1031.41 1031.06 1029.91 1029.23 1028.40 1027.47 1026.28 1025.26 1024.70 1024.14 1023.30 1022.55 1021.82 1021.04 1020.30 1019.56 1019.05 1018.46 1017.84 1017.20 1016.64 1016.00 1015.22 1014.44 1013.90 1013.31 1012.70 1012.21 1011.98 1012.07 1012.47 1012.59 1013.07 1013.79 1014.24 1014.83 1015.46 1016.07 1017.36 1017.80 1018.02 1018.99 1019.63
1032.32 1032.00 1030.62 1029.42 1028.91 1028.13 1027.22 1026.44 1025.81 1025.10 1024.47 1023.89 1023.19 1022.43 1021.74 1021.17 1020.59 1019.85 1019.19 1018.63 1018.02 1017.56 1016.91 1016.11 1015.41 1014.88 1014.54 1013.94 1013.36 1012.61 1013.15 1013.19 1013.25 1013.90 1014.17 1014.74 1015.37 1015.91 1016.56 1017.49 1018.11 1019.22 1019.78 1020.41
1032.10 1031.78 1031.03 1029.92 1028.88 1027.97 1027.32 1026.71 1026.06 1025.53 1025.03 1024.42 1023.86 1023.28 1022.59 1021.84 1021.22 1020.70 1020.19 1019.49 1018.71 1018.03 1017.37 1016.84 1016.26 1015.85 1015.41 1014.93 1014.48 1014.20 1014.04 1014.21 1014.20 1014.47 1015.37 1015.81 1016.45 1016.96 1017.52 1018.06 1018.68 1019.60 1020.75 1021.70
1031.87 1031.31 1030.56 1029.83 1028.99 1028.26 1027.61 1026.95 1026.39 1026.03 1025.47 1024.93 1024.34 1023.73 1023.12 1022.47 1021.96 1021.48 1020.98 1020.29 1019.35 1018.72 1018.33 1017.84 1017.35 1017.00 1016.38 1015.69 1015.28 1015.14 1015.23 1015.27 1015.54 1016.00 1016.58 1017.08 1017.32 1017.71 1018.39 1019.15 1019.80 1020.38 1021.55 1022.34
1031.71 1030.90 1030.36 1029.75 1029.20 1028.58 1028.07 1027.57 1027.02 1026.48 1025.99 1025.40 1024.74 1024.12 1023.46 1022.90 1022.46 1021.94 1021.44 1020.89 1020.27 1019.66 1019.06 1018.61 1018.40 1018.00 1017.51 1017.11 1016.77 1016.52 1016.42 1016.49 1016.65 1017.01 1017.53 1017.95 1018.37 1019.03 1019.78 1020.33 1020.91 1021.68 1022.63 1023.60
1031.48 1031.03 1030.54 1030.01 1029.41 1028.82 1028.32 1027.84 1027.36 1026.96 1026.40 1025.83 1024.99 1024.59 1023.99 1023.42 1023.14 1022.78 1022.19 1021.63 1021.06 1020.63 1020.25 1019.73 1019.32 1018.93 1018.59 1018.29 1018.04 1017.93 1017.82 1017.94 1018.16 1018.47 1018.95 1019.40 1019.88 1020.57 1021.28 1021.83 1022.51 1023.26 1024.13 1025.18
1031.28 1030.84 1030.40 1029.94 1029.53 1029.17 1028.69 1028.23 1027.83 1027.42 1026.90 1026.08 1025.42 1025.27 1024.95 1024.38 1024.12 1023.69 1023.12 1022.40 1021.88 1021.55 1021.40 1020.91 1020.37 1019.93 1019.68 1019.46 1019.22 1019.18 1019.17 1019.29 1019.61 1020.02 1020.46 1020.95 1021.51 1022.24 1022.75 1023.51 1024.21 1024.91 1025.66 1026.45
1031.34 1030.91 1030.50 1030.11 1029.79 1029.47 1029.13 1028.72 1028.22 1027.78 1027.32 1026.55 1026.26 1026.03 1025.62 1025.24 1024.86 1024.26 1023.74 1023.29 1023.16 1022.91 1022.51 1022.08 1021.66 1021.32 1021.05 1020.85 1020.69 1020.73 1020.83 1021.02 1021.29 1021.73 1022.14 1022.64 1023.26 1023.97 1024.62 1025.14 1025.73 1026.29 1026.89 1027.61
1031.46 1031.04 1030.75 1030.47 1030.13 1029.91 1029.55 1029.13 1028.62 1028.10 1027.68 1027.33 1027.12 1026.83 1026.41 1026.03 1025.63 1025.15 1024.43 1024.08 1024.14 1023.79 1023.33 1022.94 1022.66 1022.47 1022.35 1022.27 1022.24 1022.34 1022.49 1022.69 1022.95 1023.33 1023.76 1024.29 1024.83 1025.39 1025.95 1026.50 1027.01 1027.51 1028.17 1028.82
1031.72 1031.38 1031.15 1030.91 1030.49 1030.13 1029.94 1029.43 1028.97 1028.78 1028.58 1028.37 1028.03 1027.69 1027.22 1026.80 1026.41 1026.19 1025.92 1025.71 1025.46 1024.91 1024.46 1024.17 1023.98 1023.76 1023.63 1023.56 1023.68 1023.82 1024.03 1024.26 1024.53 1024.82 1025.20 1025.65 1026.13 1026.67 1027.24 1027.70 1028.16 1028.78 1029.31 1029.84
1031.93 1031.71 1031.50 1031.12 1030.89 1030.70 1030.30 1030.02 1029.93 1029.66 1029.49 1029.24 1028.86 1028.54 1028.27 1028.15 1027.83 1027.22 1026.76 1026.83 1026.44 1026.12 1025.68 1025.47 1025.38 1025.11 1025.00 1024.99 1025.14 1025.30 1025.54 1025.80 1026.12 1026.46 1026.83 1027.19 1027.61 1028.01 1028.46 1028.96 1029.43 1029.88 1030.33 1030.81
1032.12 1031.92 1031.63 1031.50 1031.27 1030.98 1030.83 1030.78 1030.70 1030.54 1030.28 1029.99 1029.73 1029.50 1029.27 1029.03 1028.93 1028.68 1028.45 1028.29 1027.84 1027.38 1027.07 1026.91 1026.76 1026.55 1026.49 1026.71 1026.86 1027.03 1027.24 1027.49 1027.77 1027.99 1028.28 1028.59 1028.96 1029.31 1029.72 1030.19 1030.59 1030.96 1031.29 1031.66
1032.13 1032.13 1032.09 1031.89 1031.78 1031.70 1031.60 1031.52 1031.29 1031.09 1030.89 1030.72 1030.55 1030.42 1030.26 1030.09 1029.87 1029.95 1029.69 1029.44 1029.15 1028.93 1028.68 1028.37 1028.16 1028.10 1028.09 1028.15 1028.22 1028.35 1028.58 1028.88 1029.10 1029.28 1029.65 1029.99 1030.37 1030.69 1031.01 1031.30 1031.58 1031.86 1032.22 1032.51
1032.57 1032.68 1032.70 1032.61 1032.48 1032.27 1032.15 1031.96 1031.69 1031.57 1031.47 1031.35 1031.31 1031.26 1031.15 1031.02 1030.85 1030.72 1030.53 1030.45 1030.30 1030.11 1029.90 1029.76 1029.78 1029.72 1029.66 1029.71 1029.90 1030.05 1030.26 1030.51 1030.58 1030.76 1031.02 1031.23 1031.52 1031.75 1032.04 1032.16 1032.41 1032.72 1032.93 1033.18
1032.93 1032.94 1033.01 1033.04 1032.98 1032.73 1032.46 1032.34 1032.17 1032.08 1032.04 1032.02 1032.05 1032.09 1031.96 1031.86 1031.67 1031.56 1031.48 1031.33 1031.20 1031.12 1031.13 1031.07 1030.87 1030.80 1030.89 1030.96 1031.04 1031.15 1031.21 1031.37 1031.58 1031.81 1031.97 1032.14 1032.30 1032.54 1032.79 1032.99 1033.18 1033.40 1033.65 1033.90
Wind_Speed
20 14 6 15 20 17 13 16 11 20 18 22 29 26 21 19 20 20 19 18 15 11 9 1 13 14 16 17 18 19 18 17 16 14 14 14 15 15 14 15 14 14 14 11
6 5 3 9 22 18 15 17 16 20 16 22 24 22 14 24 23 21 18 17 15 13 11 10 8 12 15 16 15 15 16 16 14 14 14 14 14 15 15 15 16 14 13 12
6 12 7 3 21 18 16 9 19 21 24 26 28 25 17 24 24 20 18 15 14 12 11 9 8 8 14 15 13 13 14 14 14 14 14 14 14 16 16 17 16 15 14 13
8 13 1 6 16 14 15 5 21 21 22 23 25 25 16 20 20 18 17 14 13 11 11 10 8 6 5 10 13 12 13 14 14 15 15 14 14 15 15 13 16 14 14 13
6 7 1 1 17 20 15 4 21 22 22 23 26 20 8 21 19 15 14 13 12 11 11 10 9 8 3 8 13 14 13 14 14 15 15 15 14 14 13 13 11 12 12 14
6 5 5 6 27 24 17 6 27 25 23 24 20 14 14 25 22 17 13 14 15 14 12 12 12 10 2 6 11 12 14 14 15 15 15 15 14 14 12 12 12 9 10 10
8 4 2 13 20 22 11 13 26 24 23 23 19 14 18 21 21 19 18 18 16 14 13 13 12 10 10 8 6 4 10 12 11 12 12 12 12 12 12 12 11 11 10 9
6 6 6 19 8 10 11 18 19 20 21 20 20 19 19 20 21 20 21 20 19 14 13 14 14 11 10 10 7 3 12 10 10 10 8 9 12 9 11 12 13 12 12 10
4 5 11 11 9 10 16 18 18 20 21 17 18 19 20 19 19 18 18 17 16 14 14 14 14 12 10 10 8 1 10 11 10 9 9 10 13 12 10 10 10 10 10 10
7 3 11 17 3 17 18 19 20 19 18 17 16 16 18 16 17 16 15 15 13 13 13 14 13 13 10 9 7 6 10 10 9 12 10 8 7 8 10 10 10 10 10 10
7 5 16 4 17 18 22 20 19 17 15 16 16 15 14 13 15 14 14 14 13 13 12 13 12 11 10 9 6 8 7 8 9 8 10 9 6 7 7 4 8 12 10 13
4 11 9 17 18 23 20 19 17 15 16 14 12 12 13 11 11 12 13 13 13 13 12 12 11 12 12 9 6 6 7 6 7 8 8 7 9 10 15 14 12 16 14 11
7 12 16 21 18 16 17 17 15 13 12 13 13 12 12 12 13 14 13 12 12 12 11 11 11 11 11 10 7 8 8 7 9 9 8 9 8 9 13 13 19 21 21 22
10 9 10 7 12 18 15 13 12 11 11 10 11 11 12 11 11 12 12 12 11 10 10 11 11 12 10 8 8 9 9 14 7 7 7 7 7 9 9 11 12 10 19 19
4 8 12 15 15 11 11 10 10 10 10 10 8 8 9 10 11 11 11 11 9 10 12 12 12 12 10 8 8 9 8 7 8 8 7 9 8 8 8 10 11 11 11 16
13 11 8 8 9 9 9 11 10 9 9 9 9 10 9 9 10 10 10 11 13 12 11 11 11 11 11 10 9 9 10 17 13 9 8 8 8 9 10 9 11 11 10 11
7 7 9 9 8 8 7 7 7 8 8 8 9 10 10 11 11 12 11 11 11 12 12 11 10 10 10 10 10 7 7 9 16 10 9 9 9 9 9 9 10 10 10 11
6 7 6 6 6 7 7 8 8 9 9 9 9 10 11 12 12 12 11 11 11 12 13 12 10 10 10 10 10 9 9 9 9 10 10 11 11 10 10 11 11 11 12 13
5 5 5 6 6 6 6 7 7 7 8 9 10 10 10 11 11 9 11 13 13 13 12 12 17 13 12 14 12 9 10 11 11 10 11 15 12 10 10 11 11 11 10 9
5 5 5 6 6 6 6 6 6 7 8 10 9 9 12 12 11 10 11 14 13 9 10 11 11 11 11 14 15 9 10 11 11 10 10 11 11 10 10 14 11 10 9 9
5 6 6 6 6 7 7 7 7 9 10 10 9 9 9 10 12 13 12 11 14 13 13 16 11 8 8 10 11 9 10 10 10 10 10 10 10 10 10 10 9 9 9 8
5 5 5 5 6 7 8 8 9 9 9 9 10 10 10 12 11 12 14 11 8 18 10 9 8 15 11 16 8 9 9 10 9 8 9 9 9 9 8 8 9 8 8 8
4 4 4 5 6 6 7 9 8 8 9 9 10 9 9 8 8 8 10 13 9 15 10 10 16 20 19 10 9 10 10 10 9 9 8 8 8 8 8 8 8 8 8 7
3 4 4 4 4 6 7 7 6 6 7 8 10 10 8 6 8 7 8 13 17 16 13 13 16 21 18 9 9 9 9 9 9 8 9 12 8 8 8 8 8 8 8 9
4 4 4 4 4 3 4 4 3 5 6 7 8 8 9 7 7 6 7 8 16 12 10 18 21 20 10 9 9 10 9 8 8 8 8 8 7 7 8 7 7 7 6 6
3 2 2 4 3 3 2 2 3 3 3 4 5 6 6 6 6 7 7 10 9 12 9 8 8 9 9 9 9 9 8 8 8 8 8 7 7 7 6 6 6 5 5 4
2 3 1 1 2 3 2 3 3 4 4 4 5 5 5 5 7 7 8 7 8 8 8 8 7 9 8 8 8 8 7 7 9 6 6 6 5 5 5 4 4 3 3 3
Wind_Direction
314 289 148 41 6 356 357 7 16 326 330 344 342 341 344 345 352 7 19 30 34 38 45 218 183 173 166 166 169 169 166 167 164 159 160 159 161 158 158 164 169 165 160 165
293 313 236 42 10 359 358 4 358 350 350 342 332 338 346 358 1 4 6 13 20 24 30 32 9 182 166 167 165 167 168 166 156 158 160 163 161 162 158 160 161 155 157 156
296 334 315 350 5 350 342 19 12 7 328 329 341 346 351 353 359 357 351 357 11 10 18 14 1 342 171 162 154 164 160 159 155 155 160 162 161 163 163 163 159 161 161 164
296 313 45 103 12 341 341 38 17 351 337 337 337 333 331 356 349 343 344 349 3 11 9 6 354 2 2 149 152 158 158 156 155 160 162 159 158 163 163 160 166 163 164 166
320 313 32 63 352 345 340 319 17 346 337 341 338 328 342 350 345 338 337 341 357 5 6 4 5 348 329 172 160 159 155 153 159 163 159 159 161 160 161 160 158 161 163 158
325 312 350 7 334 329 307 234 2 342 338 336 333 356 347 342 344 338 347 2 4 3 6 14 1 342 289 158 161 161 159 157 159 160 160 162 158 157 155 156 150 141 144 154
348 329 119 359 340 320 26 321 329 330 331 332 346 337 322 335 347 353 359 1 5 9 16 10 1 8 34 72 69 139 143 143 148 152 153 151 145 146 146 144 137 140 134 141
327 342 357 9 354 25 322 316 319 324 325 323 333 333 341 347 353 355 358 0 2 6 12 8 12 18 33 35 339 334 128 120 122 129 129 134 134 135 132 135 133 134 130 128
297 323 340 340 314 339 335 325 324 320 316 335 333 341 345 347 354 358 0 359 358 1 4 9 12 16 23 356 344 347 118 124 120 113 126 134 132 130 128 132 135 138 140 138
313 86 318 319 319 339 332 328 321 318 331 337 339 346 347 349 351 355 360 359 357 3 8 10 6 9 10 355 356 51 116 118 123 122 116 115 126 138 139 147 145 147 144 144
266 308 324 150 343 330 326 324 322 331 343 342 341 346 349 352 353 356 359 357 1 6 2 4 2 11 8 3 19 63 80 107 111 117 121 117 109 134 140 116 161 156 161 149
300 331 301 292 314 318 318 321 333 340 343 347 347 345 351 358 359 0 2 358 4 4 2 0 7 11 7 7 25 77 79 91 107 111 108 115 118 106 94 104 129 119 127 132
272 302 298 289 298 302 323 328 335 347 342 346 350 356 2 5 4 7 7 3 4 1 358 359 10 20 11 5 21 59 90 96 103 99 111 121 118 123 122 108 118 121 128 126
276 287 291 313 313 318 322 333 340 348 351 347 354 3 10 12 6 12 6 355 1 5 8 10 12 22 14 15 37 58 69 77 89 101 108 105 105 110 111 131 125 123 127 130
262 297 278 287 299 323 337 345 357 359 356 359 359 3 5 9 10 8 3 358 5 18 16 16 18 15 11 29 49 64 75 76 74 82 88 100 106 112 110 115 114 118 125 124
306 305 306 312 327 340 346 352 1 356 355 358 9 13 9 18 18 17 11 12 23 17 15 17 20 13 16 26 43 62 75 85 90 92 95 95 100 98 103 109 115 114 118 122
308 328 335 335 340 342 344 345 353 350 352 3 11 10 17 26 28 23 18 13 21 20 14 26 25 22 28 36 49 50 66 77 86 82 84 85 88 92 97 102 103 99 97 108
290 283 294 305 327 345 354 1 1 2 4 357 19 18 21 25 25 17 15 19 28 28 19 20 34 37 39 46 61 66 70 73 76 80 84 84 84 86 92 94 97 100 100 107
338 339 352 6 0 356 360 3 358 1 1 12 28 25 26 25 18 17 25 32 33 31 17 19 33 42 51 57 57 63 71 75 76 76 81 87 83 83 86 89 92 92 94 94
354 5 13 13 18 17 5 5 14 24 17 23 28 34 41 32 19 20 32 39 30 24 25 29 34 39 45 59 63 63 69 73 77 80 80 82 84 86 88 88 90 89 90 89
356 8 17 17 22 28 28 22 26 30 25 26 27 25 28 40 36 30 32 32 22 24 30 36 38 42 52 60 59 62 66 70 72 76 79 83 87 84 83 84 84 85 89 93
357 16 15 15 30 36 25 29 33 31 30 29 30 28 37 35 34 45 42 38 22 34 37 38 41 59 63 62 58 62 65 68 72 77 79 81 83 85 83 85 87 89 92 96
8 17 20 25 28 29 37 34 29 32 33 33 37 36 42 39 28 31 40 29 38 42 42 50 59 63 62 55 58 62 63 63 64 66 70 72 75 78 82 88 90 94 97 99
25 28 36 28 33 41 41 26 25 32 39 42 46 43 38 44 46 31 44 43 43 50 55 56 60 64 62 56 57 60 62 64 63 66 73 74 73 76 83 90 93 98 98 97
53 37 37 44 48 35 23 11 42 33 48 52 47 42 39 40 48 45 46 41 52 53 48 52 56 56 52 53 56 61 62 63 65 70 71 73 77 78 82 82 85 94 95 102
94 74 60 47 34 25 31 18 53 44 41 52 45 38 43 46 46 46 51 58 54 52 47 50 50 50 52 59 61 63 65 67 69 74 79 82 83 86 84 91 91 100 107 105
152 147 115 82 26 18 52 62 69 55 46 60 71 42 48 48 51 56 57 53 54 52 51 49 51 59 66 66 67 69 73 78 81 80 79 82 82 88 87 89 86 89 92 120